Theta_e
287 287 287 287 287 287 287 287 287 287 287 287 287 287 287 286 286 286 286 285 285 285 285 285 285 285 285 285 285 285 286 286 288 290 291 292 292 292 292 291 291 291 291 290 290 290 289 289 289 288 288 288 288 288 287 286 286 286 286 286 286 286 284 282 281 280 280 281 281 282 282 282 282 282 282 281 281 280 280 279 279 280 280 280 280
286 286 287 287 287 287 287 287 287 287 287 287 287 287 287 287 286 286 285 285 286 285 285 285 284 284 285 285 285 285 286 286 287 289 290 291 292 292 292 291 291 291 291 290 290 289 288 288 288 288 288 287 287 287 287 286 286 286 286 287 287 286 284 282 281 280 279 279 281 281 281 281 281 282 282 281 281 280 280 279 279 279 280 280 280
286 286 287 287 287 287 287 287 287 287 287 287 287 287 287 287 287 287 286 286 285 286 286 285 285 285 285 285 285 285 286 286 287 288 289 290 291 292 292 291 291 291 291 291 290 288 288 288 288 287 287 287 287 286 286 286 286 286 287 287 287 286 283 282 282 280 279 279 279 280 280 281 281 281 282 282 281 280 280 280 280 280 280 280 280
286 286 286 286 287 287 287 287 286 286 287 287 287 287 287 287 287 287 287 286 285 286 286 286 285 285 285 285 286 286 286 287 287 288 289 289 290 291 291 291 291 291 291 291 290 288 287 288 288 287 286 286 286 286 286 286 286 286 286 287 287 286 283 282 282 280 279 278 278 279 279 280 280 281 281 281 281 280 280 280 280 280 280 280 280
286 286 286 286 286 286 286 286 286 286 286 286 286 286 287 287 287 287 287 286 286 286 286 286 286 286 286 286 287 287 287 287 287 288 288 289 289 290 291 290 290 291 291 291 289 288 287 287 287 287 286 286 286 286 286 285 285 285 286 287 287 285 283 282 281 280 279 278 278 278 278 279 280 280 280 280 279 279 278 279 279 279 280 280 280
285 286 286 286 286 286 286 286 286 286 286 286 286 285 286 286 287 287 287 286 286 286 286 286 286 286 286 287 287 287 287 287 287 287 288 289 289 289 290 291 290 290 290 290 289 287 287 287 287 287 286 286 286 286 285 285 285 285 286 287 287 285 283 281 280 280 279 278 277 277 278 278 279 279 279 279 278 277 277 277 277 278 278 279 279
285 286 286 286 286 285 285 285 285 285 285 285 285 285 285 286 287 287 286 286 286 286 286 285 285 285 286 287 287 287 287 287 287 287 288 288 289 289 290 291 291 290 289 289 288 287 287 287 287 287 287 286 286 286 285 285 285 285 286 287 287 285 282 281 280 279 278 278 277 277 277 278 278 277 278 278 277 276 276 276 277 277 277 277 277
285 285 285 285 285 284 284 284 284 284 285 285 285 285 285 286 286 287 286 286 286 285 285 285 285 285 286 287 287 286 287 287 287 287 287 288 288 289 289 290 290 290 289 289 288 287 287 287 286 286 286 286 286 285 285 285 285 285 286 287 286 284 282 280 279 279 278 277 277 277 277 277 277 277 277 277 276 276 276 276 277 277 276 276 276
283 284 284 284 283 283 283 283 283 284 284 284 285 285 285 285 286 287 286 286 286 285 285 285 285 285 286 287 287 286 286 287 287 287 287 287 288 289 289 289 289 289 289 288 287 286 286 286 286 286 286 285 285 285 285 285 285 285 286 287 286 284 281 280 279 278 278 277 277 277 277 277 277 277 277 277 276 276 277 277 276 276 276 276 275
283 283 283 282 282 282 282 282 282 283 283 284 285 285 285 285 286 286 286 286 286 285 285 285 285 286 286 287 287 287 287 287 287 287 287 287 288 288 288 288 288 288 288 287 286 286 286 286 286 286 286 285 285 285 285 284 285 285 286 287 286 284 281 279 279 279 278 277 277 277 277 277 277 277 277 276 276 276 277 276 276 275 275 275 275
282 282 281 281 281 280 281 281 282 283 283 284 284 285 285 286 286 287 287 286 286 286 286 286 286 286 287 287 287 287 287 287 287 287 287 287 287 287 288 287 287 287 287 287 286 285 285 286 286 285 285 285 285 285 284 284 284 285 285 285 284 282 280 280 279 279 279 278 277 277 277 277 277 277 276 276 276 276 276 276 275 275 275 274 275
281 281 280 280 280 280 281 282 282 283 283 283 284 284 285 286 286 287 287 286 286 286 286 287 286 287 287 287 287 287 287 287 287 287 287 287 287 286 286 286 286 286 286 286 286 285 285 285 285 285 285 285 285 285 284 284 284 284 284 283 281 280 279 280 280 280 279 278 278 277 278 278 277 276 276 275 276 276 276 275 275 274 274 274 274
280 280 279 280 280 280 281 282 282 283 282 282 283 284 285 286 287 287 287 287 286 286 287 287 287 287 287 287 287 287 287 287 287 287 287 286 286 286 285 285 285 285 285 286 286 285 285 285 285 285 285 285 285 285 284 284 283 283 283 281 280 279 279 279 280 280 280 279 278 278 278 277 276 276 276 276 276 276 275 275 274 274 274 274 274
278 279 279 279 279 279 279 280 281 281 281 281 283 284 285 286 287 286 286 286 286 286 286 286 287 287 287 287 287 287 288 287 287 287 287 287 286 285 285 285 284 284 285 285 285 285 285 285 285 285 285 284 284 284 284 283 282 282 282 280 279 279 279 280 280 280 280 279 278 278 278 277 276 276 276 276 276 275 275 275 274 274 274 274 274
278 278 278 278 278 278 279 279 280 280 280 281 283 285 286 286 286 286 286 286 286 286 286 286 286 287 287 287 287 287 287 287 287 287 287 287 286 285 285 284 284 284 284 284 284 285 285 285 285 285 285 284 284 285 284 282 282 282 281 279 279 279 280 280 280 280 280 279 279 279 278 277 276 276 276 276 275 275 275 275 275 274 274 273 274
277 277 277 277 278 278 278 279 279 279 280 281 283 285 286 286 286 286 286 286 286 286 286 286 286 287 287 287 287 287 287 287 286 286 287 286 285 285 285 285 284 284 284 283 283 284 284 284 284 284 285 284 284 284 284 283 282 282 280 279 279 280 280 281 281 280 280 279 279 278 277 277 276 276 276 276 275 275 275 274 274 274 273 273 274
276 276 277 277 277 277 277 278 278 279 280 281 283 284 285 286 286 286 286 286 286 286 286 286 287 287 287 287 287 287 286 286 286 286 286 286 285 284 284 284 284 284 284 283 283 283 283 284 284 284 284 284 284 283 283 283 282 281 280 280 280 280 281 281 280 279 279 279 278 277 276 276 277 276 276 275 275 275 274 274 274 273 272 273 273
275 276 276 276 275 276 277 277 278 279 280 281 282 283 285 286 286 286 286 286 286 286 287 287 287 287 287 286 286 286 286 285 285 285 286 285 284 284 284 284 284 284 284 283 283 283 283 283 283 284 284 283 283 283 282 282 281 281 280 280 280 280 281 281 280 279 279 278 277 276 276 276 276 275 275 275 275 274 274 274 274 273 273 273 274
275 275 275 275 275 276 277 277 277 278 279 280 282 284 285 285 285 285 285 286 286 287 287 287 286 287 286 286 286 286 286 285 285 285 285 285 284 284 284 284 284 284 284 284 283 283 282 282 282 283 283 283 282 282 281 281 281 281 281 281 280 281 281 281 280 279 279 278 277 276 276 275 274 274 274 274 274 274 274 274 274 274 274 274 274
274 274 274 274 275 276 277 277 277 279 280 281 283 285 285 285 285 285 285 286 287 287 287 286 286 286 286 286 286 286 286 285 285 285 285 284 284 284 284 284 284 284 284 284 283 282 282 282 281 282 282 281 281 280 280 280 281 281 281 280 280 281 281 280 279 278 278 277 276 275 275 274 274 274 274 275 274 274 274 274 274 274 274 275 275
273 273 273 274 275 276 277 278 280 281 282 284 285 285 285 285 285 285 286 286 287 287 287 287 287 287 286 286 286 285 285 285 285 285 285 284 284 284 284 284 284 284 284 284 283 283 282 281 281 281 281 281 280 280 279 280 281 281 280 281 281 281 280 279 278 277 276 275 275 274 274 274 274 274 275 275 274 275 275 275 275 275 275 275 275
271 272 273 274 275 277 278 280 282 283 284 285 285 285 285 285 286 286 287 287 287 287 287 287 287 286 286 285 285 284 284 284 284 284 284 284 284 284 284 284 284 284 284 284 283 283 282 282 281 280 280 280 280 279 279 279 280 280 281 281 280 279 278 278 277 276 275 275 274 274 274 274 275 275 275 275 275 275 275 275 275 275 275 275 275
270 271 272 274 275 277 279 281 283 284 284 285 285 285 286 286 286 287 287 287 287 287 286 286 286 285 284 284 284 284 284 284 284 284 284 284 284 284 284 284 284 284 283 283 283 282 282 281 281 280 280 279 279 279 279 279 280 280 280 279 279 278 278 277 276 275 274 274 274 274 274 275 275 275 275 275 275 275 275 275 275 275 275 275 275
270 271 272 274 275 278 280 282 283 284 285 285 285 285 286 286 286 287 287 287 287 287 286 285 284 283 283 283 284 284 284 283 283 283 283 284 284 284 284 284 284 283 283 283 282 282 281 281 280 280 279 279 279 279 279 279 280 280 278 278 278 278 277 276 275 274 274 274 274 274 275 275 275 275 275 275 275 275 275 275 275 275 275 275 275
269 270 272 273 275 277 280 282 283 284 284 285 285 285 286 286 286 286 287 286 286 286 286 285 284 283 283 283 283 283 283 283 283 283 283 283 284 283 283 283 283 283 283 282 282 281 281 280 280 279 278 278 279 279 279 279 279 278 278 279 278 277 275 275 274 274 274 274 274 275 275 275 275 275 275 275 275 275 275 275 275 275 275 275 275
269 270 271 273 275 277 279 281 282 284 284 284 285 285 286 286 286 286 286 286 286 286 286 285 284 283 283 283 283 283 283 282 282 283 283 283 283 283 283 283 283 283 282 282 281 281 280 280 280 279 279 279 279 279 279 279 279 278 278 279 277 275 275 274 274 274 274 274 275 275 275 275 275 275 275 275 275 275 275 274 274 274 274 274 275
268 269 271 273 275 276 278 279 281 283 284 285 285 285 285 286 286 286 286 286 286 286 285 284 283 283 283 283 283 282 282 282 282 283 283 283 283 283 283 283 283 283 282 281 281 281 280 280 279 279 279 279 279 279 279 279 279 279 279 278 276 275 274 274 274 274 274 274 274 275 274 275 275 275 275 275 274 274 274 274 274 274 274 274 274
267 269 270 272 274 275 277 279 280 282 284 285 285 285 285 285 286 286 285 286 285 285 284 283 282 282 282 283 283 282 282 282 282 283 283 283 283 283 282 282 282 282 282 281 281 280 280 279 279 279 279 279 279 279 279 279 279 279 278 277 276 275 274 273 274 274 274 274 274 274 274 275 274 274 274 274 274 274 274 274 274 274 274 274 274
267 268 270 271 273 275 276 278 279 281 282 284 285 286 285 285 285 285 285 285 284 284 283 282 282 282 282 282 282 282 282 282 282 282 283 283 283 283 282 282 282 282 282 281 280 280 279 279 279 279 279 279 279 279 279 279 278 278 278 276 275 274 273 274 274 274 274 274 274 274 275 274 274 274 274 274 274 274 274 274 274 273 273 274 273
267 268 269 271 273 274 276 278 279 280 282 283 285 286 286 285 284 284 284 285 284 284 284 283 282 282 282 282 282 282 282 282 282 282 282 282 282 282 282 282 282 282 281 281 280 279 279 279 279 279 279 279 279 279 279 279 278 278 277 275 274 273 274 274 274 274 274 274 274 275 274 274 274 274 274 273 273 273 273 273 273 273 273 273 273
266 267 269 271 272 273 275 277 279 280 282 282 283 284 285 285 284 284 284 284 284 284 284 283 283 282 282 281 282 282 282 282 282 282 282 282 282 282 282 282 282 282 281 281 281 280 279 279 279 279 279 279 279 279 279 278 278 277 275 274 273 274 274 274 274 274 274 274 274 274 274 274 274 274 274 273 273 273 273 273 273 273 273 273 273
266 267 269 271 272 273 274 276 278 280 282 283 283 283 284 284 284 283 284 284 284 284 284 284 283 282 281 281 281 281 281 281 282 282 282 282 282 281 281 282 282 282 281 281 281 280 279 279 279 279 279 279 279 279 279 278 277 276 274 274 274 274 274 274 274 274 274 274 274 274 274 274 274 273 273 273 273 273 273 273 273 273 273 273 273
266 267 269 270 271 273 274 276 278 280 281 282 283 283 284 283 282 282 284 285 284 284 283 283 282 281 281 281 281 281 281 281 281 281 282 282 281 281 281 281 281 281 281 281 281 280 280 279 279 279 279 279 279 278 278 277 276 275 274 274 274 274 275 274 274 275 274 274 274 274 274 274 274 273 273 273 273 273 273 273 273 273 273 273 273
266 267 269 270 271 273 274 276 278 279 280 282 282 283 284 283 281 282 283 284 284 284 283 282 281 281 281 281 281 281 281 281 280 281 281 281 281 281 280 281 281 281 281 281 281 280 280 279 279 279 279 278 278 278 277 276 275 274 274 274 274 275 275 275 275 275 274 274 274 274 274 274 273 273 273 273 273 273 273 273 273 272 272 272 272
267 268 269 270 271 273 274 276 277 278 280 281 282 283 284 284 282 281 282 283 284 284 282 281 281 281 280 281 281 281 281 280 280 280 280 280 280 280 280 280 280 280 281 281 281 280 280 279 279 279 278 278 278 278 277 275 274 274 274 274 275 275 275 275 275 274 274 274 274 274 274 273 273 273 273 273 273 272 272 272 272 272 272 272 272
268 269 269 270 271 273 274 275 277 278 279 281 282 283 284 284 282 281 282 283 283 283 282 281 281 281 280 281 281 281 280 280 280 280 280 280 280 280 280 279 280 280 280 280 280 280 280 279 279 279 278 278 278 277 276 275 274 274 274 274 275 275 275 275 275 274 274 274 274 274 274 273 273 273 273 272 272 272 272 272 272 272 272 272 271
268 269 269 270 271 273 274 276 277 278 279 280 282 283 284 284 283 282 282 283 283 283 282 281 281 281 280 281 281 280 280 280 280 280 280 280 280 280 280 279 279 279 280 280 280 280 280 279 279 279 278 278 277 276 275 275 274 274 274 275 275 275 275 275 275 274 274 274 274 274 273 273 273 273 272 272 272 272 272 272 271 271 271 271 271
269 269 270 270 271 273 274 276 277 278 279 280 282 283 284 285 284 282 282 282 283 282 282 281 281 281 280 280 280 280 280 280 280 280 280 281 280 280 280 279 279 279 279 279 279 279 279 279 279 278 278 277 276 275 275 274 274 274 274 275 275 275 275 275 275 274 274 274 274 274 273 273 272 272 272 272 272 272 271 271 271 271 271 271 271
269 270 271 271 272 273 274 275 277 278 280 281 282 283 284 285 284 283 282 282 282 282 281 281 281 280 280 280 280 280 280 280 281 281 281 280 280 280 279 279 279 279 279 279 279 279 279 279 278 278 277 276 275 275 275 274 274 274 275 275 275 275 275 275 275 274 274 274 274 273 273 273 272 272 272 272 271 271 271 271 271 271 271 270 270
270 271 272 272 273 274 274 276 277 279 280 281 283 283 284 284 284 283 283 283 283 282 281 281 281 280 280 280 280 280 280 280 280 280 280 280 280 280 279 279 279 278 278 278 279 279 279 278 278 277 276 275 275 275 274 274 274 275 275 275 275 275 275 275 275 274 274 274 273 273 273 272 272 272 272 271 271 271 271 271 271 270 270 270 270
270 271 272 273 273 274 275 276 278 279 280 282 283 283 284 284 284 283 283 283 283 282 282 281 281 280 280 280 280 280 280 280 280 280 280 280 280 280 279 279 278 278 278 278 278 278 278 278 278 277 276 275 275 274 274 274 275 275 275 275 275 275 275 275 275 274 274 274 273 273 273 272 272 272 272 271 271 271 270 270 270 270 270 270 270
271 271 272 273 274 274 275 277 278 279 280 282 283 283 283 283 283 283 283 283 283 283 282 281 280 280 280 280 280 279 279 279 279 280 280 280 280 279 279 279 278 278 277 277 278 278 278 278 278 278 277 276 275 274 274 275 275 275 276 276 275 275 275 275 275 274 274 274 273 273 272 272 272 272 271 271 271 270 270 270 270 269 269 269 269
271 271 272 274 274 275 276 277 278 279 280 281 282 282 282 283 283 283 284 284 284 283 282 281 280 279 279 279 279 279 279 279 279 279 279 279 279 279 279 278 278 278 277 277 277 277 277 277 278 278 278 276 275 275 275 275 275 276 276 275 275 275 275 275 274 274 274 274 273 273 272 272 272 272 271 271 270 270 270 270 269 269 269 269 269
271 272 273 274 275 276 276 277 278 279 280 281 282 282 283 283 283 284 284 285 284 283 282 281 280 279 279 279 279 279 279 279 279 278 279 279 279 279 278 278 278 277 277 277 277 277 277 277 278 278 277 275 274 274 274 275 275 275 275 275 275 275 274 274 274 274 274 273 273 273 272 272 272 271 271 270 270 270 270 269 269 269 269 268 268
272 273 274 274 275 276 277 278 278 279 280 281 282 283 283 284 284 285 285 284 283 282 282 281 280 279 278 279 279 279 279 278 278 278 278 278 278 278 278 278 277 277 277 277 277 277 277 278 277 277 276 275 274 274 274 274 274 274 274 274 274 274 274 274 274 274 274 273 273 272 272 272 271 271 270 270 270 269 269 269 269 269 268 268 268
272 273 274 274 275 276 277 278 278 279 280 281 282 283 284 284 284 284 284 284 283 282 282 281 280 279 278 278 278 278 278 278 278 278 278 278 278 278 277 277 277 277 277 277 277 277 277 276 276 275 275 275 274 274 274 275 274 274 274 274 274 274 274 274 274 274 273 273 273 272 272 271 271 271 270 270 269 269 269 269 268 268 268 268 267
273 273 274 275 275 276 277 277 278 279 280 281 281 282 283 283 283 284 284 283 282 282 281 281 280 278 278 278 278 278 278 278 278 278 278 278 277 277 277 277 277 277 277 277 277 276 276 275 275 275 274 274 274 274 275 275 275 275 274 274 274 274 274 274 273 273 273 272 272 272 272 271 271 270 270 269 269 269 268 268 268 268 267 267 267
273 274 274 275 275 276 277 277 278 279 280 280 280 281 282 283 283 283 283 282 281 281 281 280 279 278 277 278 278 278 278 278 278 278 278 277 277 277 277 277 277 277 277 277 277 276 275 275 275 274 274 274 274 274 274 274 274 274 274 274 274 274 274 273 273 273 272 272 272 272 271 271 270 270 269 269 269 268 268 268 267 267 267 267 267
273 274 274 274 275 276 276 277 278 279 280 280 281 282 282 283 283 283 283 281 281 280 280 280 278 278 277 277 277 277 277 278 278 278 277 277 277 277 277 277 277 277 277 276 276 275 275 275 274 274 273 274 274 274 274 274 274 274 274 274 274 274 273 273 273 272 272 272 272 271 271 270 270 270 269 269 269 268 268 267 267 267 267 266 266
273 273 274 274 275 276 277 277 278 279 280 281 281 282 282 283 282 282 281 281 280 280 280 279 278 277 277 277 277 277 277 277 277 277 277 277 277 277 276 276 276 276 276 275 275 275 275 274 274 273 273 273 273 273 273 273 273 274 274 274 273 273 273 273 272 272 272 272 271 271 271 270 270 270 269 269 268 268 267 267 267 267 266 266 266
272 273 274 274 275 276 277 277 278 278 279 280 281 281 282 282 281 281 280 280 279 279 278 278 277 277 277 277 277 277 277 277 277 277 277 276 276 276 276 276 275 275 275 275 274 274 274 274 273 273 273 273 273 273 273 273 273 273 273 273 273 273 273 272 272 272 271 271 271 270 270 270 270 269 269 268 268 267 267 267 267 266 266 266 266
Wind_Speed
30 30 28 27 26 25 25 26 26 26 25 26 26 26 26 26 25 24 25 25 25 25 26 26 26 26 26 26 27 28 29 28 28 31 33 36 37 38 39 40 42 42 42 43 43 42 42 42 43 44 46 48 47 49 50 48 45 42 41 39 40 40 38 37 35 30 28 30 29 27 26 24 25 26 26 26 26 25 25 25 27 28 29 29 29
30 30 28 26 25 25 25 25 25 25 26 26 25 26 26 27 27 26 26 26 25 25 26 26 27 27 28 29 29 29 31 30 30 30 32 35 36 39 40 41 42 42 42 44 43 42 42 42 43 44 46 47 48 49 50 49 46 43 42 41 40 40 39 35 34 32 29 29 28 27 25 24 25 26 26 26 27 26 25 26 27 29 31 31 30
30 29 28 26 25 24 24 23 24 24 25 26 25 25 26 26 27 27 26 27 27 26 26 27 28 28 29 30 30 31 32 32 31 31 32 34 35 38 40 42 43 42 43 45 44 42 42 42 43 44 45 47 48 49 49 49 48 45 43 41 39 39 38 35 33 32 30 28 27 26 24 24 25 25 26 27 27 27 26 26 28 30 32 31 31
30 28 27 26 24 23 23 23 23 24 25 26 26 26 27 27 27 27 26 27 28 28 26 25 27 28 28 28 28 29 32 32 32 31 32 33 35 37 40 42 43 43 43 44 43 42 42 43 43 44 45 47 48 49 50 49 48 46 42 40 39 39 38 36 33 32 30 28 27 26 24 24 25 26 26 27 26 26 27 27 29 31 31 31 32
30 29 27 25 23 23 24 24 24 25 26 27 29 29 29 28 27 27 27 28 28 28 26 24 24 25 26 27 26 27 31 33 32 32 32 33 34 36 38 41 43 43 43 43 42 41 42 43 44 44 45 47 49 50 50 50 49 46 43 40 39 40 38 36 33 31 30 29 27 25 25 25 26 27 26 26 25 26 27 28 29 31 31 31 32
32 32 28 25 24 25 25 24 25 26 28 30 33 32 30 28 27 26 27 27 26 25 26 26 25 25 25 26 27 28 30 33 33 32 33 34 34 35 36 39 42 42 42 42 41 40 41 42 43 44 45 47 49 50 49 49 49 46 43 41 40 40 38 34 32 30 29 28 27 25 25 26 26 26 25 25 25 24 25 26 27 29 30 31 31
34 35 29 25 26 27 27 28 28 29 30 32 35 35 32 28 26 26 26 27 28 27 28 29 28 27 27 27 28 28 28 31 34 33 33 34 35 35 36 37 40 41 41 42 40 39 40 40 41 42 43 44 46 47 47 48 47 45 42 41 41 40 37 33 31 30 28 28 26 25 24 24 25 25 24 25 25 24 24 24 23 23 25 27 28
36 33 27 25 28 29 30 32 32 33 33 34 36 36 32 27 25 25 26 28 29 30 30 29 28 28 29 29 30 29 28 31 34 33 33 34 34 35 36 36 37 40 41 41 39 38 38 39 39 39 40 41 42 43 44 45 45 44 43 42 40 39 36 33 31 30 28 28 26 24 22 21 21 22 23 23 23 22 21 20 19 19 23 26 28
38 32 28 29 32 34 36 39 38 36 36 35 35 35 31 26 24 25 26 28 29 29 29 29 28 28 28 29 30 30 29 31 34 34 33 33 33 34 35 35 36 38 41 40 38 38 38 37 37 38 38 39 39 39 41 42 43 43 43 42 40 38 35 33 31 30 29 29 27 23 21 20 20 22 21 19 19 18 16 15 17 19 23 26 28
34 30 30 32 36 40 43 43 39 35 33 32 32 32 30 27 24 25 26 28 29 29 29 28 27 26 27 28 29 29 30 31 33 32 31 31 32 33 33 34 35 37 40 40 38 38 38 37 36 36 36 36 37 37 38 40 42 42 41 39 37 37 35 33 31 30 29 29 27 24 22 22 22 23 21 19 19 18 15 16 19 22 24 27 29
32 31 32 36 41 43 41 38 35 32 29 28 29 29 29 28 25 24 26 28 29 28 26 26 26 25 25 27 28 28 29 31 31 28 27 27 28 30 32 33 34 37 39 40 39 38 38 37 35 35 35 35 35 36 37 40 41 41 39 35 33 33 33 32 31 30 30 30 27 25 25 25 25 25 23 22 20 18 16 18 21 23 25 27 28
35 32 34 37 38 36 34 31 29 26 25 26 28 29 29 28 26 25 25 26 26 25 23 23 23 24 24 26 27 27 27 29 28 26 25 25 25 28 32 32 33 36 38 39 39 38 37 36 34 34 34 34 34 34 36 39 40 39 36 31 29 29 29 29 29 29 29 29 27 26 25 25 25 25 24 23 20 18 19 22 22 24 26 27 29
34 32 32 33 32 31 31 30 28 26 28 31 31 29 28 27 26 26 25 24 25 25 24 24 23 23 24 24 26 27 27 28 28 26 26 26 24 27 33 34 33 35 37 38 39 38 36 35 33 33 33 33 33 34 35 37 38 37 33 29 29 28 28 28 28 28 27 27 26 25 23 23 24 24 24 23 22 22 25 27 27 29 30 31 34
30 29 30 31 33 34 35 34 32 33 35 35 31 27 26 26 25 25 25 24 24 25 24 24 24 23 22 23 24 26 29 30 28 27 27 28 25 25 33 37 34 34 35 37 38 37 36 34 32 32 32 32 33 34 35 36 37 35 32 30 29 28 29 29 28 27 27 26 24 23 22 23 23 23 23 23 24 26 28 31 33 35 35 35 37
27 28 31 31 31 31 31 31 32 34 34 32 28 25 23 23 23 23 23 22 22 23 23 23 24 22 21 23 25 26 29 30 29 27 27 29 26 24 31 37 37 34 34 36 37 36 34 32 30 30 30 30 31 32 34 36 36 34 32 31 30 29 29 29 28 27 26 25 24 22 22 22 22 22 23 25 27 29 31 34 35 35 36 37 38
29 30 31 29 28 29 31 33 33 34 32 29 27 24 21 21 21 21 21 21 21 21 22 22 23 22 21 23 26 28 30 31 29 28 27 28 24 22 29 36 38 35 32 34 36 35 32 30 29 28 27 28 29 29 31 34 35 34 32 31 30 29 29 29 27 26 25 23 21 19 18 20 22 23 25 27 31 32 32 32 31 31 34 37 38
31 30 28 27 31 36 39 37 35 34 31 28 26 23 21 21 20 20 20 20 19 19 20 22 22 22 22 25 27 28 29 30 30 28 27 26 22 22 28 34 36 35 33 32 32 32 30 28 27 26 25 26 27 27 29 33 35 34 32 30 29 30 29 28 26 24 22 20 18 17 20 23 24 25 26 28 30 31 30 28 27 28 32 37 38
30 28 27 31 38 41 38 32 30 30 29 27 25 22 20 21 20 19 20 19 18 18 19 21 22 22 23 26 27 27 27 28 28 27 27 24 19 22 28 31 33 33 32 29 27 27 27 26 24 25 25 25 25 25 28 33 34 33 30 29 30 30 29 27 24 22 20 19 20 22 25 26 25 23 24 25 25 25 25 24 25 26 30 33 34
30 28 30 38 43 41 36 30 27 27 26 24 21 19 19 20 19 19 18 18 18 19 19 20 21 22 23 25 27 27 28 28 26 25 26 22 17 22 27 29 29 31 31 28 24 24 23 22 22 23 24 23 23 24 27 31 33 31 30 31 31 30 27 25 23 21 20 20 21 23 24 24 23 22 21 20 20 20 20 20 22 24 26 28 29
30 29 34 42 44 41 37 31 24 22 22 21 18 17 19 19 18 18 18 19 20 20 20 21 22 23 25 26 27 29 29 29 26 24 23 18 18 22 27 28 28 29 29 28 25 23 22 21 20 21 22 23 23 24 27 30 31 31 31 31 30 27 24 22 20 19 19 20 20 21 21 21 20 18 16 16 16 16 17 18 19 21 23 24 25
30 32 38 43 43 40 36 28 19 16 16 16 17 18 19 18 17 17 18 19 20 20 22 24 25 27 28 28 27 28 27 26 23 21 19 16 18 22 26 27 27 27 27 27 26 24 23 23 21 19 21 24 24 25 28 28 29 30 30 28 26 23 21 19 19 19 19 19 19 18 18 17 15 14 12 12 13 14 16 17 18 19 21 22 23
33 36 40 42 41 38 32 23 16 14 13 15 17 18 17 16 15 16 17 18 19 21 24 27 28 29 29 27 26 25 23 21 20 17 15 16 18 20 24 26 26 26 26 26 26 25 24 23 20 19 22 24 25 28 29 27 28 28 26 24 21 20 18 18 18 17 17 17 16 15 14 13 12 11 10 11 12 13 15 16 17 18 19 20 20
37 39 40 41 39 35 28 20 14 12 12 14 15 16 15 15 15 16 17 17 19 21 24 27 28 28 27 24 22 20 18 17 15 14 14 17 18 18 21 23 23 24 23 23 24 24 23 21 19 18 21 24 27 29 29 26 26 25 23 21 21 19 17 16 16 16 15 15 14 12 11 10 9 9 9 10 11 12 13 15 16 17 18 18 19
39 39 40 39 38 33 24 17 15 15 16 16 15 15 15 15 15 15 16 17 18 20 23 25 25 24 22 20 18 16 14 13 11 11 13 18 19 16 17 20 20 19 19 19 20 21 19 18 18 18 21 24 26 28 27 25 23 22 21 21 19 17 15 15 15 14 13 13 13 12 10 8 7 7 8 9 11 12 12 14 15 16 16 18 18
38 39 40 38 36 31 24 18 16 16 17 17 16 15 14 14 15 16 16 17 19 22 24 25 23 20 18 17 15 12 10 9 9 10 12 18 21 16 14 17 17 16 15 15 15 15 15 16 18 19 22 24 25 26 26 25 21 20 20 18 15 14 14 13 12 13 13 14 13 11 8 7 6 6 8 9 10 11 11 13 15 15 16 17 17
39 40 39 36 34 30 26 22 16 13 13 14 15 15 15 16 17 17 16 17 20 23 25 24 20 17 15 14 12 10 8 8 9 11 13 18 21 18 13 14 14 13 12 11 11 13 15 17 20 22 23 24 25 26 27 26 24 22 19 14 12 12 12 11 12 14 15 14 12 10 7 5 5 5 6 7 8 10 11 12 14 15 16 17 18
39 39 38 35 32 30 27 25 20 14 12 12 13 15 17 18 17 16 16 18 21 23 22 20 17 15 13 12 10 9 8 7 9 12 15 19 22 20 15 13 14 14 13 13 14 16 18 20 22 24 26 27 28 29 29 29 27 24 18 13 11 12 12 13 15 16 15 13 10 8 6 4 3 3 4 6 7 9 11 12 13 15 16 17 18
38 38 37 33 31 29 27 26 24 20 16 14 13 15 18 20 18 17 16 18 21 22 20 17 15 13 12 11 9 8 8 7 10 13 15 18 21 21 18 17 17 17 17 17 18 19 21 24 27 29 30 31 31 30 30 28 24 19 15 13 13 13 14 16 17 16 14 12 9 7 5 3 1 2 4 5 7 9 10 12 13 15 16 17 19
37 37 36 33 30 29 27 26 25 22 19 16 13 12 15 19 19 18 17 18 20 20 17 15 14 13 11 9 8 7 6 5 9 12 15 17 20 22 22 22 20 18 19 20 22 24 27 30 31 33 32 31 31 29 27 25 21 17 16 16 15 15 17 18 17 15 13 11 9 7 4 2 0 2 4 6 7 9 11 12 13 15 16 17 19
37 37 35 32 30 28 27 26 24 22 20 18 15 13 14 17 19 20 20 19 20 19 16 13 12 13 11 8 6 5 5 6 9 13 15 17 20 22 22 22 20 19 21 23 23 26 30 32 32 32 32 30 29 27 25 23 21 20 19 18 17 18 19 18 16 14 13 11 8 6 4 2 0 2 4 6 7 9 11 12 13 15 16 18 19
37 37 35 31 29 27 27 26 23 21 19 18 17 17 17 17 20 22 21 21 20 19 18 15 12 11 9 6 5 4 5 6 9 13 16 17 20 22 21 22 21 21 22 24 24 26 30 31 31 30 29 27 27 26 25 24 22 21 20 19 19 20 19 18 16 14 12 10 8 6 4 2 0 2 4 6 8 10 11 13 14 16 17 18 19
34 35 33 30 28 26 25 24 22 20 19 17 17 18 19 20 23 24 22 22 21 20 19 18 13 9 8 6 3 2 3 5 9 13 16 17 20 22 21 22 23 21 20 23 24 25 27 29 29 29 28 28 28 28 26 23 21 20 19 19 21 21 19 17 16 15 12 10 8 6 4 2 0 2 4 6 8 10 12 14 15 17 17 18 19
32 33 30 28 27 25 23 23 21 19 18 17 17 18 18 19 24 26 24 23 22 21 20 19 13 6 6 6 3 2 1 2 7 12 16 18 19 20 20 22 24 22 21 22 23 24 25 26 28 30 30 29 29 27 24 21 20 19 19 20 21 20 19 17 16 14 12 9 7 5 4 2 1 3 5 7 9 11 13 15 16 17 19 19 20
31 30 27 26 26 24 22 21 20 18 18 17 16 18 18 19 22 26 26 24 24 23 21 18 12 3 4 6 5 3 2 3 7 12 16 18 18 19 20 21 23 23 21 20 21 24 26 26 27 30 30 29 27 25 22 21 20 19 20 21 21 19 19 18 16 13 11 9 7 5 3 2 2 4 6 8 10 12 14 15 16 18 19 21 22
30 27 25 25 24 23 21 21 20 18 17 16 15 16 18 18 20 24 25 24 24 24 22 17 11 5 7 8 6 4 4 6 9 12 16 18 18 20 23 24 24 25 23 20 19 22 25 26 26 27 27 26 24 22 20 20 20 20 22 23 21 20 19 17 15 13 10 8 6 5 3 3 3 5 6 9 10 12 14 15 16 18 20 21 23
29 27 26 25 24 22 21 20 19 17 15 15 14 15 16 17 19 22 23 22 22 22 21 16 11 8 10 10 7 6 7 8 11 13 16 18 19 23 27 27 26 26 25 22 20 21 23 23 23 25 25 23 22 20 19 19 20 22 23 22 20 19 19 16 14 12 10 8 7 5 4 4 4 6 8 9 11 12 14 15 16 18 20 21 22
28 27 27 25 23 21 19 18 17 15 14 13 12 13 15 16 17 19 21 20 19 19 17 13 10 11 12 10 8 8 8 10 12 13 15 18 21 24 26 24 22 23 23 21 20 20 21 21 21 22 22 20 19 19 18 19 20 22 23 21 19 18 17 15 13 11 10 8 7 6 5 5 6 7 9 10 12 13 14 15 16 17 19 20 22
28 26 25 24 23 21 19 17 15 14 12 11 10 12 14 15 16 17 18 18 17 16 14 11 11 12 13 11 9 9 10 11 13 14 16 19 22 24 23 20 18 18 20 20 19 19 20 21 21 21 20 18 18 19 19 20 22 23 22 20 19 17 16 14 12 11 10 9 8 7 6 6 7 8 9 11 12 13 14 15 16 17 19 20 22
28 26 24 23 22 21 19 17 15 13 12 10 9 10 12 13 14 15 16 16 16 14 12 10 10 12 13 11 9 9 11 13 14 16 18 20 21 20 18 17 15 15 16 18 19 19 20 21 20 19 18 17 18 18 19 21 23 23 21 19 18 16 15 14 12 11 11 10 9 8 7 7 8 9 10 11 12 13 14 16 17 18 20 21 22
29 27 25 24 22 20 18 16 13 12 11 10 10 10 11 11 12 13 14 15 15 13 11 9 8 10 12 10 8 9 11 14 14 14 16 17 17 16 14 12 12 12 12 15 17 19 21 21 19 17 17 17 17 18 20 21 22 21 19 17 16 14 14 13 12 12 12 11 9 8 8 8 9 10 11 12 13 14 15 16 17 18 19 21 22
28 27 27 25 23 21 18 16 13 11 10 9 9 10 10 9 10 11 12 13 13 11 10 8 5 7 9 8 6 7 9 11 13 13 12 12 13 13 11 9 9 9 9 11 16 19 20 19 17 16 16 16 16 17 19 20 20 19 18 16 15 14 13 13 12 12 12 11 10 9 8 9 10 11 12 13 13 14 15 16 17 18 19 21 22
28 28 27 25 23 21 19 16 14 12 10 8 8 9 9 8 8 9 10 11 11 10 9 7 4 5 7 7 6 6 6 7 9 11 11 10 10 10 10 9 10 9 7 9 15 20 20 18 15 14 14 14 15 16 19 20 19 18 16 15 14 13 12 12 12 12 11 11 10 9 9 10 10 11 12 13 14 15 15 16 17 19 20 21 23
28 27 25 24 22 20 18 16 14 13 11 9 8 8 8 7 7 7 8 9 9 9 9 7 4 4 6 6 6 6 6 6 6 8 9 9 10 9 8 9 11 10 8 9 16 20 19 17 14 12 12 13 14 15 17 18 17 16 14 13 12 12 11 11 12 11 11 10 10 10 10 11 11 12 12 13 13 14 15 17 18 19 20 22 23
27 25 24 23 21 19 17 16 15 14 12 10 8 7 7 7 7 7 8 8 8 9 9 7 5 4 5 5 6 7 6 6 5 6 7 9 10 10 9 9 11 11 10 11 15 18 18 15 14 13 13 13 14 15 16 16 15 14 12 11 10 10 10 11 11 11 10 10 11 11 11 11 12 12 12 12 13 14 15 16 18 19 20 22 23
25 25 24 23 22 19 17 16 15 14 13 11 8 7 6 6 7 7 6 6 7 8 9 8 5 4 5 5 5 7 7 7 6 6 8 10 10 10 10 10 12 13 13 12 13 15 16 15 14 14 14 15 16 17 17 16 15 14 12 11 10 10 10 11 11 11 10 10 11 11 11 11 12 12 12 12 13 14 15 16 18 19 20 21 22
25 25 23 23 22 20 18 17 16 14 14 13 10 8 7 6 6 5 5 6 8 9 9 8 5 5 5 5 6 7 8 8 9 10 11 12 13 13 13 13 14 15 15 14 13 14 15 15 15 14 15 15 17 18 18 18 16 15 13 12 11 11 11 11 11 10 10 10 11 11 11 11 11 11 11 12 12 13 14 16 18 19 20 22 22
25 24 23 23 22 21 19 18 17 15 15 15 13 11 9 8 7 6 6 7 8 9 9 8 6 6 7 7 8 9 9 10 11 12 14 14 14 14 14 14 14 15 15 15 14 14 15 15 15 15 15 16 17 18 17 16 14 13 11 9 9 9 9 9 9 9 10 10 11 11 11 11 11 11 11 11 12 13 15 16 18 19 20 21 22
24 24 24 24 23 21 20 19 18 16 17 17 16 13 12 11 10 8 7 7 8 9 10 8 5 7 9 9 9 10 11 12 13 14 14 14 13 13 13 13 13 14 14 14 14 14 15 16 16 16 16 16 16 16 14 12 11 9 8 7 7 7 7 8 8 9 9 9 9 10 10 10 11 11 11 12 13 14 15 17 18 19 20 21 21
24 24 24 23 22 21 20 19 18 17 18 18 17 16 15 13 11 9 7 8 9 9 9 7 6 9 10 10 10 12 12 13 14 15 16 15 13 13 13 13 14 14 14 14 14 15 15 16 17 16 16 15 14 13 11 10 9 8 6 6 6 6 6 7 7 8 8 8 8 9 9 10 11 11 12 13 14 15 16 17 18 19 20 20 20
25 24 23 22 21 20 19 18 17 17 17 17 16 15 14 12 11 9 9 9 10 9 8 6 7 11 11 11 12 13 13 14 16 18 17 16 15 14 13 13 14 14 14 13 14 14 15 16 16 16 16 15 13 12 11 9 8 6 5 5 5 5 6 6 6 6 7 7 8 9 10 10 11 12 13 14 14 15 16 17 17 18 19 19 19
24 23 22 22 20 19 19 18 17 16 16 15 13 11 9 9 10 10 10 10 9 8 7 6 9 12 12 12 14 14 14 15 17 18 17 15 14 14 13 12 12 13 13 12 13 14 14 15 16 16 16 15 13 12 10 8 6 5 4 4 4 4 5 5 5 6 6 7 8 9 10 11 12 12 13 14 14 15 16 16 17 18 18 18 18
Wind_Direction
307 305 305 303 302 302 303 304 304 303 303 302 300 299 299 299 297 294 293 292 293 295 295 296 296 295 291 285 281 278 277 273 270 267 267 269 269 265 260 256 254 251 248 245 241 238 238 238 237 237 236 235 234 233 233 233 233 235 238 240 239 237 235 236 236 236 243 249 251 254 257 256 256 258 261 264 267 270 275 280 283 283 282 282 281
307 306 305 303 301 303 305 306 306 305 304 302 299 297 297 297 296 294 292 289 290 291 291 294 295 293 291 286 281 278 277 275 272 269 268 268 269 267 261 257 255 252 248 245 242 238 238 238 237 237 237 236 235 234 233 232 232 234 238 240 238 237 235 236 239 239 239 245 251 253 254 254 254 255 259 264 268 271 273 278 282 283 283 283 282
307 306 305 302 301 302 304 305 306 306 306 302 298 295 292 291 292 292 289 287 288 289 288 293 295 293 290 286 283 279 278 277 274 271 269 267 268 269 265 259 255 253 249 246 243 240 238 237 237 236 237 236 235 234 233 232 233 234 238 240 239 238 237 237 240 241 239 242 249 253 252 252 253 254 256 260 264 269 273 277 278 280 281 282 282
306 305 304 302 301 302 303 304 305 306 307 305 301 297 293 289 286 286 285 285 288 289 288 290 293 293 289 285 282 281 280 278 275 272 270 267 266 268 267 262 257 254 251 247 243 241 238 236 236 235 235 235 234 234 233 231 232 233 236 240 240 238 237 237 239 242 242 242 246 251 253 254 256 258 259 262 265 270 275 277 278 280 281 283 283
305 304 301 299 300 301 302 303 303 304 306 306 305 300 296 292 287 284 285 284 284 286 286 287 288 289 288 284 280 280 280 279 276 273 271 268 266 266 267 264 259 255 252 248 243 242 240 237 235 234 234 233 231 231 231 230 230 231 234 238 239 237 236 236 239 240 242 242 243 247 251 253 257 261 263 267 271 275 280 283 284 286 286 286 286
304 302 299 298 300 301 302 301 301 301 301 304 307 303 296 294 290 285 283 282 281 283 285 288 288 286 285 284 281 279 278 278 278 275 271 269 268 266 266 265 262 257 253 249 243 241 242 240 237 235 233 232 230 229 229 229 229 230 232 235 237 235 234 234 237 238 240 242 241 242 247 253 258 261 265 270 273 277 282 286 286 288 289 290 290
302 301 298 298 301 303 304 303 301 300 298 301 307 304 294 289 288 285 282 282 281 283 286 287 287 286 284 284 283 280 276 276 278 277 272 269 268 267 266 265 263 257 252 249 244 240 240 240 238 236 234 234 232 229 229 229 229 230 233 236 236 234 233 233 235 236 237 238 238 238 241 249 255 259 264 269 272 276 281 281 280 282 286 287 288
307 304 302 301 303 304 304 304 302 301 298 297 302 301 291 282 284 285 285 285 284 284 285 285 285 284 282 282 283 281 275 272 275 276 272 270 269 269 268 267 265 258 250 247 243 239 238 238 238 237 236 236 235 232 232 231 230 231 233 235 236 233 231 231 232 232 233 235 235 235 236 241 248 254 260 264 268 274 277 273 271 275 280 283 285
315 309 304 302 303 303 304 305 302 299 297 294 295 295 287 279 282 285 286 287 285 283 283 282 282 281 279 279 281 280 276 273 273 274 273 270 269 270 269 269 266 258 249 244 241 238 237 236 235 235 235 235 236 235 236 235 234 234 235 236 235 231 229 229 229 229 231 232 231 230 230 231 238 248 253 254 258 265 267 266 269 276 282 285 288
312 307 304 302 304 305 304 303 300 295 293 291 290 289 283 278 281 284 285 285 285 284 282 281 280 279 278 277 278 279 277 275 276 277 277 273 269 269 268 267 264 257 248 241 238 237 236 235 233 233 234 234 234 234 235 237 237 237 239 240 236 228 225 226 227 228 230 231 229 227 228 231 240 250 251 252 260 264 263 266 275 283 287 288 290
304 303 304 304 305 305 301 298 295 292 290 290 289 286 281 279 280 282 282 284 285 284 281 279 278 277 276 277 278 277 275 275 278 282 282 279 274 270 267 263 259 255 247 240 237 235 234 234 233 232 233 233 233 234 234 236 237 237 239 240 236 230 227 226 227 228 229 230 229 229 232 238 248 254 256 261 268 266 262 269 278 285 287 287 290
301 301 304 305 306 305 301 297 293 290 291 293 293 288 281 279 279 280 280 281 283 282 276 274 276 276 276 278 280 278 274 273 278 283 286 286 278 268 264 260 255 250 245 238 235 234 232 233 232 232 232 233 233 233 233 235 237 237 235 231 227 227 228 228 228 230 231 231 231 233 240 247 254 258 262 267 268 262 265 273 279 282 283 284 286
303 303 306 308 308 307 305 302 298 296 296 296 296 290 281 278 278 280 282 281 279 278 273 271 273 274 275 277 279 280 277 276 278 282 287 290 282 262 253 253 251 247 243 236 233 232 231 230 230 230 231 232 232 232 232 233 234 233 229 223 221 222 222 224 227 230 233 234 235 239 246 251 255 259 264 269 269 268 273 279 281 283 283 283 285
307 308 311 311 311 309 307 304 300 298 296 297 301 298 285 279 278 278 281 280 276 274 273 272 273 274 274 275 276 277 277 277 278 281 285 290 285 258 243 246 247 245 241 235 231 231 229 226 226 227 228 229 229 230 230 229 228 224 219 217 218 218 219 222 225 229 232 235 237 242 247 250 254 261 267 271 272 272 276 280 283 285 284 283 286
314 316 316 313 312 312 311 307 304 300 298 300 306 303 287 279 280 279 278 278 274 273 272 271 273 274 274 275 276 276 276 278 279 281 284 288 282 254 237 240 242 242 241 236 232 231 228 225 224 224 225 226 227 229 229 225 221 217 213 213 214 216 220 223 226 229 232 236 240 243 248 254 261 266 268 270 270 272 277 282 284 286 286 288 291
321 319 317 317 317 316 314 309 304 301 300 301 303 299 289 283 283 281 280 279 275 272 272 275 278 279 279 279 279 278 280 282 283 281 283 287 277 246 233 237 238 238 239 235 231 230 228 225 224 223 223 224 225 228 228 223 216 212 210 211 213 216 221 225 228 232 235 239 244 248 252 257 259 262 265 269 274 278 282 284 286 288 289 291 294
320 319 318 319 319 317 314 309 303 299 298 297 297 296 293 290 288 285 284 282 276 274 278 283 285 283 281 280 281 283 285 287 286 282 283 284 268 238 231 235 234 234 235 231 228 228 226 225 224 221 221 222 222 225 226 220 213 209 209 210 213 217 221 224 227 230 233 237 240 240 244 250 257 263 268 271 274 278 281 284 288 290 288 289 293
319 319 317 316 320 323 323 318 306 298 294 293 294 296 297 296 293 290 286 282 280 283 286 287 285 284 283 282 284 288 290 289 287 283 281 278 255 229 230 232 230 230 230 227 224 224 224 223 221 219 218 219 219 221 222 217 210 206 207 210 214 218 221 223 225 227 230 232 233 236 242 252 261 267 270 271 273 276 279 284 288 288 286 288 293
320 318 313 316 325 333 336 329 311 298 294 294 296 301 303 300 295 293 291 289 290 291 291 288 284 285 288 290 289 289 287 286 284 281 280 270 237 222 228 229 226 225 224 223 220 218 219 219 216 215 214 214 216 217 217 214 207 204 207 210 214 217 220 223 226 227 230 232 236 242 247 253 260 263 267 270 272 274 277 281 285 286 287 291 295
322 319 314 319 330 339 340 334 318 301 297 300 307 313 308 300 297 298 297 297 297 296 295 293 288 287 291 292 289 284 281 280 279 278 276 256 220 218 226 225 222 222 221 221 219 214 212 210 210 210 206 207 210 208 207 208 204 204 207 209 213 217 219 221 222 224 230 234 238 242 245 248 253 257 261 265 267 272 278 282 286 288 290 296 298
323 320 318 324 335 340 340 338 327 309 306 314 322 319 307 299 301 304 302 302 302 301 301 302 298 295 294 293 289 284 279 276 275 274 266 234 207 215 224 222 221 220 219 221 220 216 211 207 205 204 200 201 201 194 196 202 202 202 206 209 213 216 214 214 217 219 225 230 233 237 239 240 243 246 253 262 268 276 282 285 291 294 296 300 302
323 323 323 329 337 341 342 343 333 318 324 332 324 308 300 305 312 313 311 308 304 305 308 307 302 299 298 295 290 285 279 272 269 266 248 213 199 214 222 220 220 220 218 220 220 218 216 211 206 202 198 197 193 186 190 199 200 199 203 205 206 207 205 207 213 215 219 224 228 231 231 229 231 238 252 264 272 279 285 289 295 298 300 304 306
326 327 328 332 339 344 347 351 343 332 338 337 319 306 311 323 322 317 314 308 304 308 312 308 304 302 301 298 293 286 277 267 259 251 229 201 192 211 223 219 219 221 221 222 220 217 216 212 205 201 198 194 187 181 184 194 196 192 193 195 197 200 201 203 206 208 213 218 218 215 215 216 224 239 255 266 273 281 288 293 297 299 303 309 313
329 331 331 334 342 347 350 356 359 354 348 338 322 315 320 322 317 315 314 310 310 315 313 309 309 309 304 301 296 285 273 263 248 233 215 194 185 200 221 219 216 219 221 222 221 217 211 203 198 196 191 186 180 176 180 188 188 182 183 191 194 193 194 196 199 204 208 206 201 199 203 211 224 244 260 270 277 284 290 296 299 303 308 313 317
332 334 333 335 343 349 353 360 5 359 349 337 322 316 317 317 317 316 314 315 321 323 319 316 318 316 308 304 300 284 267 257 237 214 201 189 181 187 213 218 212 213 216 216 214 208 199 191 188 184 180 177 173 171 177 185 185 179 183 189 185 181 187 194 198 201 198 193 192 195 202 215 232 254 268 277 285 293 297 298 301 306 310 313 316
334 335 334 336 342 351 358 0 0 357 349 338 327 323 322 320 317 317 318 325 329 328 324 322 324 322 313 306 298 280 263 247 220 197 190 188 182 178 195 211 207 204 206 199 189 187 185 181 176 172 170 171 170 171 176 182 184 186 190 187 177 180 192 197 195 193 189 186 188 191 198 217 240 262 279 292 299 302 303 304 306 310 312 313 314
335 335 335 337 343 351 357 359 359 358 352 341 335 334 333 328 321 319 326 333 333 329 327 326 326 324 316 306 293 274 257 230 206 192 187 189 185 177 181 198 196 190 192 186 178 178 176 171 167 167 168 170 172 174 178 181 185 190 192 187 187 195 197 192 188 185 181 179 181 185 192 214 246 276 298 309 311 311 313 316 317 317 316 317 317
336 336 337 340 344 349 354 357 359 357 349 344 344 345 344 339 331 325 327 332 332 332 331 328 323 320 317 310 295 272 252 223 202 193 189 190 187 177 177 189 190 183 182 180 175 173 170 166 167 170 172 174 174 177 181 184 188 192 192 192 200 202 193 186 181 177 174 175 175 179 188 200 239 303 321 322 320 321 324 325 324 323 323 323 322
338 338 340 341 343 347 351 355 355 353 349 348 350 352 351 347 340 334 332 331 332 335 335 326 315 311 313 312 303 282 260 226 200 192 189 191 188 180 179 187 186 178 176 177 174 172 171 169 171 174 175 175 176 178 183 187 189 192 196 200 203 196 186 180 175 171 171 173 172 176 181 176 188 331 333 330 328 329 330 329 329 329 329 329 329
339 339 340 341 342 346 350 351 351 351 349 349 347 349 352 350 345 343 341 339 340 342 340 327 308 302 303 308 307 284 241 206 191 186 185 188 187 182 182 187 184 176 175 177 176 174 172 170 173 176 177 177 178 180 185 189 192 197 200 199 194 186 180 175 171 170 170 172 174 174 168 153 92 342 340 336 333 333 332 331 332 334 334 334 335
338 338 339 340 342 346 347 347 348 348 348 349 350 352 355 351 347 348 348 346 346 347 344 335 317 296 286 287 295 276 233 205 190 183 182 184 185 182 181 184 185 181 178 178 177 176 175 173 174 177 179 180 183 186 189 193 197 200 199 192 184 179 175 172 171 173 173 173 173 169 158 152 129 339 338 335 334 335 335 336 337 338 338 339 339
337 337 339 339 340 344 345 345 345 345 346 350 353 356 358 352 346 349 352 350 350 351 347 340 328 296 264 251 255 270 250 217 190 183 180 180 182 182 181 184 187 186 183 183 182 180 179 178 177 178 181 184 187 191 194 197 198 197 193 186 178 174 172 171 173 175 176 175 171 167 164 164 230 329 331 333 335 337 339 340 342 341 342 344 344
340 338 339 340 340 341 343 343 343 344 347 349 350 353 357 353 346 347 351 353 354 355 351 345 339 310 245 224 192 161 239 206 177 176 177 176 177 177 178 184 190 188 186 189 189 186 184 184 183 183 186 189 190 192 195 195 193 191 186 181 177 174 173 174 176 176 176 175 174 174 179 189 290 320 328 333 336 338 340 341 342 344 344 346 347
343 341 342 342 340 340 342 343 343 344 347 348 346 347 353 355 351 348 349 353 356 358 358 356 357 2 184 182 165 141 124 142 156 165 170 170 170 169 171 180 189 192 191 192 193 191 186 185 186 187 188 189 189 190 191 189 187 185 181 177 175 175 175 177 178 177 175 178 182 186 196 225 296 316 324 328 332 336 339 339 342 345 346 347 348
346 345 347 347 343 342 343 344 343 343 345 347 346 346 349 355 354 351 351 355 358 0 4 10 23 76 135 150 147 122 105 127 144 154 160 161 160 163 167 175 184 191 192 191 192 191 187 185 187 187 185 185 186 187 187 185 183 181 178 176 175 176 178 179 179 177 179 186 193 201 216 248 291 309 315 322 328 333 337 339 342 345 346 348 349
349 349 350 350 347 344 344 344 343 342 344 345 346 346 347 351 355 355 355 358 2 4 9 21 47 96 126 135 129 106 103 125 140 149 154 156 157 165 173 179 183 187 189 188 188 188 185 184 185 184 180 181 184 185 185 184 183 180 178 176 176 178 180 181 180 180 186 196 203 214 235 257 285 302 310 318 326 331 334 337 341 344 346 348 348
353 353 351 351 349 346 345 344 341 342 345 345 344 345 344 345 351 356 358 1 6 9 16 34 71 107 121 121 113 103 109 125 136 143 149 154 162 173 183 189 188 185 186 186 186 185 183 182 182 181 179 181 183 182 182 183 182 179 176 176 177 180 182 182 184 187 196 206 215 229 247 263 284 299 307 315 322 326 329 334 338 343 345 346 346
355 354 354 355 353 350 349 347 343 344 347 344 344 346 341 339 348 357 359 3 8 14 25 51 90 113 118 115 110 109 115 125 134 141 150 162 173 182 190 196 194 187 185 186 185 183 180 176 175 177 179 179 180 180 181 181 180 177 175 176 180 183 185 188 191 197 206 216 226 238 250 265 283 296 303 310 317 321 325 330 335 339 343 345 347
355 356 359 1 358 355 353 350 347 347 347 345 348 347 336 334 347 357 360 4 10 18 34 62 98 119 123 120 118 119 126 136 146 154 164 173 180 185 191 197 197 190 184 184 184 182 176 171 169 172 176 177 179 180 181 180 178 176 177 181 185 188 191 194 198 205 214 224 233 242 254 270 283 293 302 308 314 318 323 328 333 336 339 343 345
356 359 2 4 3 0 358 355 353 352 350 348 347 341 333 339 352 357 360 8 14 21 38 62 100 127 132 134 132 130 139 150 158 166 173 178 181 184 190 195 195 189 183 183 182 178 172 168 166 169 171 174 178 181 181 179 177 177 180 186 189 193 197 200 205 213 220 228 238 247 259 273 284 292 301 307 311 316 322 326 331 334 336 339 341
0 1 3 4 5 2 359 359 358 354 349 345 338 333 335 347 356 357 3 11 15 22 37 58 94 131 142 147 141 130 140 155 166 174 180 180 181 184 185 182 178 175 177 181 179 174 171 169 168 168 170 173 177 180 180 179 178 179 183 187 191 196 202 206 212 221 227 233 243 252 263 274 283 292 299 304 309 315 321 325 329 332 334 336 338
3 2 2 5 5 3 1 1 359 355 353 346 336 335 342 351 357 3 13 17 15 19 35 54 88 133 151 158 153 136 133 150 167 178 181 179 180 180 177 174 172 168 166 174 175 172 171 172 172 171 174 177 178 179 180 180 180 182 187 192 196 201 207 212 219 227 233 240 248 256 264 274 283 290 296 302 307 314 319 322 326 329 331 334 336
4 4 4 6 7 6 4 3 2 2 1 354 346 345 349 354 3 18 29 26 15 15 29 49 82 138 158 165 167 156 136 136 159 174 172 169 174 175 167 164 168 167 161 166 172 173 174 176 178 178 179 180 180 180 181 180 181 185 190 195 201 206 211 219 226 232 238 245 253 260 266 275 283 288 293 299 306 311 316 319 322 326 329 332 335
5 5 7 10 12 12 9 8 9 11 9 4 1 357 356 6 24 37 37 26 15 16 29 45 70 127 148 157 172 171 152 137 146 159 155 155 163 167 159 153 157 159 154 155 165 173 179 182 183 181 178 176 176 177 177 178 182 187 192 198 206 212 219 225 230 235 241 248 255 262 268 275 280 285 291 298 304 309 313 317 320 324 328 331 334
7 8 11 14 15 16 16 16 17 19 18 17 18 14 13 26 41 45 36 23 18 23 32 43 64 109 128 137 156 164 154 138 134 142 146 144 146 149 148 145 147 151 152 152 157 165 172 175 177 178 176 175 174 174 174 176 180 185 189 195 204 212 221 227 231 237 244 251 257 262 267 273 279 285 292 298 303 308 312 316 319 322 326 330 334
11 12 15 17 19 20 22 23 25 28 32 33 30 29 31 36 39 41 38 28 24 28 35 43 66 107 122 122 129 140 141 135 131 135 138 138 137 139 142 144 146 151 155 157 157 159 162 164 168 173 175 175 174 175 176 179 184 189 194 201 209 217 223 228 233 240 246 251 256 262 268 275 282 289 295 299 304 308 312 315 319 323 327 330 333
14 16 18 21 22 22 25 27 30 37 44 44 38 35 38 39 36 41 44 32 25 30 37 42 66 111 123 120 120 126 129 128 130 133 135 137 140 143 145 147 150 153 156 157 158 157 158 160 163 168 173 176 177 178 180 184 188 193 200 207 214 221 226 229 234 241 247 251 258 265 272 280 287 293 298 301 305 310 313 316 320 324 327 330 332
15 18 20 22 22 22 24 28 32 39 47 48 43 40 43 45 43 45 41 25 20 30 35 40 74 119 126 121 121 125 127 127 130 134 134 135 137 140 141 143 147 150 154 156 156 157 159 160 161 166 172 175 177 179 180 182 185 189 193 200 208 217 225 228 234 241 247 254 263 270 278 286 292 296 301 305 308 311 314 317 321 324 327 330 332
17 19 20 20 21 22 24 26 29 36 45 47 43 40 41 41 39 36 24 12 17 29 33 43 92 123 127 125 125 128 128 129 131 131 129 126 125 128 133 139 143 147 152 155 156 159 162 162 162 165 170 171 171 171 171 172 174 177 183 195 207 218 225 230 237 245 252 261 272 280 286 293 297 301 304 307 310 311 314 317 321 324 327 330 332
17 18 18 18 20 22 24 26 28 34 41 44 42 37 30 24 21 18 12 12 22 31 34 55 108 126 128 127 129 131 130 131 132 131 126 119 114 115 121 131 139 144 148 152 157 161 164 163 162 164 165 164 164 164 163 164 165 168 177 193 208 220 229 236 244 255 264 275 284 290 295 299 303 305 307 308 309 311 314 318 322 325 328 330 333
15 17 18 18 20 22 24 24 25 28 33 38 40 37 25 14 13 15 15 18 30 39 45 77 116 127 128 128 131 133 132 133 137 137 132 124 117 111 110 117 130 140 146 151 157 162 164 164 163 162 163 164 165 165 165 164 164 168 180 198 212 225 235 247 260 271 282 290 294 297 301 304 306 308 309 309 310 313 317 320 324 327 330 332 334